Location: ????????
(55.7667°N, 37.4833°E)
Time: 03:28:50
(UTC+00:00)

Cosmos 1758 - Pass Details

Date: 19 May 2025
Orbit: 491 x 512 km, 82.5° (Epoch: 14 June)

Event Time Altitude Azimuth Distance (km) Brightness Sun altitude
Rises 21:41:21 0° 350° (N) 2,647 8.5 -14.2°
Reaches altitude 10° 21:43:32 10° 355° (N) 1,754 7.3 -14.2°
Maximum altitude 21:47:19 56° 74° (ENE) 618 3.6 -14.1°
Enters shadow 21:49:53 19° 148° (SSE) 1,267 4.7 -14.1°
